Time,TemperatureF,DewpointF,PressureIn,WindDirection,WindDirectionDegrees,WindSpeedMPH,WindSpeedGustMPH,Humidity,HourlyPrecipIn,Conditions,Clouds,dailyrainin,SolarRadiationWatts/m^2,SoftwareType,DateUTC
2013-08-24 00:02:00,60.0,53.0,-100.00,East,83,1.0,5.0,77,0.00,,,0.00,0.000000,,2013-08-24 07:02:00,
2013-08-24 00:43:00,57.0,51.0,-100.00,ESE,104,0.0,2.0,81,0.00,,,0.00,0.000000,,2013-08-24 07:43:00,
2013-08-24 00:53:00,57.0,51.0,-100.00,ESE,104,0.0,2.0,81,0.00,,,0.00,0.000000,,2013-08-24 07:53:00,
2013-08-24 01:02:00,57.0,51.0,-100.00,ESE,104,0.0,2.0,81,0.00,,,0.00,0.000000,,2013-08-24 08:02:00,
2013-08-24 01:42:00,55.0,50.0,-100.00,SSW,198,0.0,0.0,82,0.00,,,0.00,0.000000,,2013-08-24 08:42:00,
2013-08-24 01:52:00,55.0,50.0,-100.00,SSW,198,0.0,0.0,82,0.00,,,0.00,0.000000,,2013-08-24 08:52:00,
2013-08-24 02:01:00,55.0,50.0,-100.00,SSW,198,0.0,0.0,82,0.00,,,0.00,0.000000,,2013-08-24 09:01:00,
2013-08-24 02:44:00,54.0,49.0,-100.00,NE,54,0.0,4.0,83,0.00,,,0.00,0.000000,,2013-08-24 09:44:00,
2013-08-24 02:53:00,54.0,49.0,-100.00,NE,54,0.0,4.0,83,0.00,,,0.00,0.000000,,2013-08-24 09:53:00,
2013-08-24 03:03:00,54.0,49.0,-100.00,NE,54,0.0,4.0,83,0.00,,,0.00,0.000000,,2013-08-24 10:03:00,
2013-08-24 03:42:00,52.0,48.0,-100.00,SSE,157,0.0,1.0,86,0.00,,,0.00,0.000000,,2013-08-24 10:42:00,
2013-08-24 03:53:00,52.0,48.0,-100.00,SSE,157,0.0,1.0,86,0.00,,,0.00,0.000000,,2013-08-24 10:53:00,
2013-08-24 04:02:00,52.0,48.0,-100.00,SSE,157,0.0,1.0,86,0.00,,,0.00,0.000000,,2013-08-24 11:02:00,
2013-08-24 05:42:00,50.0,46.0,-100.00,SW,229,0.0,2.0,86,0.00,,,0.00,0.000000,,2013-08-24 12:42:00,
2013-08-24 06:42:00,48.0,45.0,-100.00,NE,52,0.0,0.0,88,0.00,,,0.00,0.000000,,2013-08-24 13:42:00,
2013-08-24 06:52:00,48.0,45.0,-100.00,NE,52,0.0,0.0,88,0.00,,,0.00,0.000000,,2013-08-24 13:52:00,
2013-08-24 07:02:00,48.0,45.0,-100.00,NE,52,0.0,0.0,88,0.00,,,0.00,0.000000,,2013-08-24 14:02:00,
2013-08-24 08:04:00,59.0,46.0,-100.00,ENE,75,1.0,4.0,62,-99.99,,,0.00,129.000000,,2013-08-24 15:04:00,
2013-08-24 08:45:00,59.0,46.0,-100.00,ENE,75,1.0,4.0,62,-99.99,,,0.00,129.000000,,2013-08-24 15:45:00,
2013-08-24 08:54:00,59.0,46.0,-100.00,ENE,75,1.0,4.0,62,-99.99,,,0.00,129.000000,,2013-08-24 15:54:00,
2013-08-24 11:42:00,76.0,50.0,-100.00,East,96,6.0,12.0,40,-99.99,,,0.00,713.000000,,2013-08-24 18:42:00,
2013-08-24 18:42:00,84.0,49.0,-100.00,NE,54,6.0,17.0,30,-99.99,,,0.00,326.000000,,2013-08-25 01:42:00,
2013-08-24 18:52:00,84.0,49.0,-100.00,NE,54,6.0,17.0,30,-99.99,,,0.00,326.000000,,2013-08-25 01:52:00,
2013-08-24 19:02:00,84.0,49.0,-100.00,NE,54,6.0,17.0,30,-99.99,,,0.00,326.000000,,2013-08-25 02:02:00,
2013-08-24 19:42:00,80.0,51.0,-100.00,East,80,6.0,12.0,36,-99.99,,,0.00,49.000000,,2013-08-25 02:42:00,
2013-08-24 19:52:00,80.0,51.0,-100.00,East,80,6.0,12.0,36,-99.99,,,0.00,49.000000,,2013-08-25 02:52:00,
2013-08-24 20:02:00,80.0,51.0,-100.00,East,80,6.0,12.0,36,-99.99,,,0.00,49.000000,,2013-08-25 03:02:00,
2013-08-24 20:44:00,73.0,53.0,-100.00,East,88,5.0,12.0,49,0.00,,,0.00,7.000000,,2013-08-25 03:44:00,
2013-08-24 20:54:00,73.0,53.0,-100.00,East,88,5.0,12.0,49,0.00,,,0.00,7.000000,,2013-08-25 03:54:00,
2013-08-24 21:02:00,-999.0,-99.9,-100.00,East,88,5.0,12.0,-999,-99.99,,,-99.99,7.000000,,2013-08-25 04:02:00,
2013-08-24 21:43:00,69.0,53.0,-100.00,SSE,150,1.0,9.0,57,0.00,,,0.00,0.000000,,2013-08-25 04:43:00,
2013-08-24 21:54:00,69.0,53.0,-100.00,SSE,150,1.0,9.0,57,0.00,,,0.00,0.000000,,2013-08-25 04:54:00,
2013-08-24 22:03:00,69.0,53.0,-100.00,SSE,150,1.0,9.0,57,0.00,,,0.00,0.000000,,2013-08-25 05:03:00,
2013-08-24 22:42:00,65.0,53.0,-100.00,SW,229,0.0,0.0,65,0.00,,,0.00,0.000000,,2013-08-25 05:42:00,
2013-08-24 22:52:00,65.0,53.0,-100.00,SW,229,0.0,0.0,65,0.00,,,0.00,0.000000,,2013-08-25 05:52:00,
2013-08-24 23:03:00,65.0,53.0,-100.00,SW,229,0.0,0.0,65,0.00,,,0.00,0.000000,,2013-08-25 06:03:00,
2013-08-24 23:43:00,62.0,52.0,-100.00,SW,216,0.0,2.0,71,0.00,,,0.00,0.000000,,2013-08-25 06:43:00,
2013-08-24 23:52:00,62.0,52.0,-100.00,SW,216,0.0,2.0,71,0.00,,,0.00,0.000000,,2013-08-25 06:52:00,